Terminal Aerodrome Forecast
Issued by NWS

Home | Current Version | Previous Version | Text Only | Print | Product List | Glossary On
Versions: 1 2 3 4 5 6 7 8 9 10 11 12 13 14 15 16 17 18 19 20 21 22 23 24 25 26 27 28 29
000
FTUS45 KGJT 072335
TAFEGE
TAF
KEGE 072335Z 0800/0824 VRB05KT P6SM VCTS SCT070CB BKN090
      TEMPO 0801/0805 06005KT P6SM -TSRA SCT050CB OVC070
     FM080800 00000KT P6SM VCSH FEW050 BKN070
     FM082000 VRB06KT P6SM VCTS BKN070CB
      AMD LTD TO CLD VIS AND WIND 0802/0813=

USA.gov is the U.S. government's official web portal to all federal, state and local government web resources and services.